Regional Weather Roundup
Issued by NWS

Home | Current Version | Previous Version | Graphics & Text | Print | Product List | Glossary On
Versions: 1 2 3 4 5 6 7 8 9 10 11 12 13 14 15 16 17 18 19 20 21 22 23 24 25 26 27 28 29 30 31 32 33 34 35 36 37 38 39 40 41 42 43 44 45 46 47 48 49 50
000
ASUS43 KOAX 251502
RWRNE

WEATHER ROUNDUP FOR NEBRASKA
NATIONAL WEATHER SERVICE OMAHA NE
1000 AM CDT TUE APR 25 2017

NOTES: SATELLITE DATA IS BEING USED TO AUGMENT CLOUD COVER ABOVE
       12000 FEET.
       "FAIR" INDICATES FEW OR NO CLOUDS BELOW 12,000 FEET WITH NO
       SIGNIFICANT WEATHER AND/OR OBSTRUCTIONS TO VISIBILITY.

  * THESE STATIONS DO NOT REPORT WEATHER SUCH AS RAIN...SNOW OR FOG.

NEZ001>004-019>022-054>056-251600-
NEBRASKA PANHANDLE

CITY           SKY/WX    TMP DP  RH WIND       PRES   REMARKS
SCOTTSBLUFF    PTSUNNY   50  38  63 NW10      29.55S
ALLIANCE       CLOUDY    43  40  89 E12       29.56S
CHADRON        LGT SNOW  34  33  96 NE16      29.64R FOG     WCI  24
KIMBALL        SUNNY     50  36  57 NW14      29.56S
SIDNEY         MOSUNNY   48  43  82 CALM      29.56S
$$

NEZ057>060-069>072-079>082-251600-
SOUTHWEST NEBRASKA

CITY           SKY/WX    TMP DP  RH WIND       PRES   REMARKS
NORTH PLATTE   LGT RAIN  41  38  89 NE17      29.56F
IMPERIAL       CLOUDY    46  44  93 NE12      29.54S
LEXINGTON      CLOUDY    42  39  90 N15G25    29.56F
MCCOOK         CLOUDY    46  45  96 N15       29.53F
OGALLALA       CLOUDY    44  42  92 E9        29.57R
$$

NEZ005>010-023>029-035>040-094-251600-
NORTH CENTRAL NEBRASKA

CITY           SKY/WX    TMP DP  RH WIND       PRES   REMARKS
VALENTINE      LGT RAIN  36  32  85 N10       29.66F FOG     WCI  28
AINSWORTH      LGT SNOW  33  33 100 NE9       29.66F WCI  26
BROKEN BOW     LGT RAIN  40  40 100 N18G24    29.59F WCI  31
O`NEILL        LGT RAIN  37  35  93 N18G24    29.65R WCI  26
ORD            RAIN      39  36  89 N16       29.60R FOG     WCI  30
THEDFORD       LGT RAIN  37  36  94 NE14      29.62F WCI  29
$$

NEZ041-046>049-061>064-073>077-083>087-251600-
SOUTH CENTRAL NEBRASKA

CITY           SKY/WX    TMP DP  RH WIND       PRES   REMARKS
GRAND ISLAND   LGT RAIN  43  42  97 NW18      29.57R
AURORA         CLOUDY    43  41  93 N15       29.57R
HASTINGS       CLOUDY    46  42  86 N21       29.55F
HEBRON         CLOUDY    53  43  69 NE14      29.47S
HOLDREGE       CLOUDY    45  42  90 N22       29.54F
KEARNEY *      CLOUDY    43  37  81 N21G29    29.57S
YORK           CLOUDY    46  41  81 N15       29.52R
$$

NEZ011>018-030>034-042>045-251600-
NORTHEAST NEBRASKA

CITY           SKY/WX    TMP DP  RH WIND       PRES   REMARKS
NORFOLK        LGT RAIN  40  37  89 N16       29.53S WCI  31
ALBION         RAIN      41  37  87 N18G24    29.55R
BLAIR          CLOUDY    46  42  84 N14       29.52R
FREMONT        CLOUDY    46  40  81 N8        29.54R
TEKAMAH        LGT RAIN  46  40  79 N22G31    29.51F
WAYNE          LGT RAIN  41  40  98 N15G23    29.54F
$$

NEZ050>053-065>068-078-088>093-251600-
SOUTHEAST NEBRASKA

CITY           SKY/WX    TMP DP  RH WIND       PRES   REMARKS
LINCOLN        CLOUDY    51  41  68 N18       29.51F
OMAHA EPPLEY   CLOUDY    50  41  71 N13       29.52R
BEATRICE       CLOUDY    56  48  74 NE12      29.46S
FALLS CITY     CLOUDY    65  50  58 S10       29.43F
NEBRASKA CITY  CLOUDY    57  44  62 N12       29.47F
$$

NEZ044-045-051>053-067-251600-
OMAHA AREA

CITY           SKY/WX    TMP DP  RH WIND       PRES   REMARKS
OMAHA EPPLEY   CLOUDY    50  41  71 N13       29.52R
BLAIR          CLOUDY    46  42  84 N14       29.52R
FREMONT        CLOUDY    46  40  81 N8        29.54R
MILLARD        CLOUDY    52  44  73 N8        29.51F
OFFUTT AFB     CLOUDY    52  43  72 N12       29.49F
WAHOO          CLOUDY    46  39  76 N13       29.53F
$$




USA.gov is the U.S. government's official web portal to all federal, state and local government web resources and services.